[[{"header":{"parameterUnit":"m.s-1","parameterCategory":2,"la1":30.2991,"la2":30.254,"lo1":-89.0895,"lo2":-89.0444,"dy":0.0017,"dx":0.0017,"nx":28,"ny":28,"refTime":"2024-06-11T21:00:00:Z","depth":"0","parameterNumber":2,"parameterNumberName":"U-component_of_CURRENTS"},"data":[0,0,0,0,0,0,0,0,0,0,0,0,0,0,0,0,0,0,0,0,0,0,0,0,0,0,0,0,0,0,0,0,0,0,0,0,0,0,0,0,0,0,0,0,0,0,0,0,0,0,0,0,0,0,0,0,0,0,0.2546,0.2545,0,0.2431,0.2429,0.2428,0.2342,0.2342,0.2342,0.2341,0.2237,0.2234,0.2232,0,0,0,0,0,0,0,0,0,0,0,0,0,0.2663,0.2661,0.2546,0.2545,0.2544,0.2431,0.2429,0.2427,0.2342,0.2342,0.2341,0.2341,0.2238,0.2235,0.2232,0,0,0,0,0,0,0,0,0,0,0,0,0,0.2583,0.2661,0.2546,0.2491,0.2485,0.2432,0.2429,0.2427,0.2343,0.2342,0.2341,0.2341,0.2239,0.2235,0.2231,0.2221,0,0,0.222,0.2219,0,0,0,0,0,0,0,0,0.2588,0.2578,0.25,0.2494,0.2488,0.2404,0.2432,0.236,0.2343,0.2392,0.2341,0.2341,0.2297,0.2288,0.2262,0.2216,0.2212,0.222,0.2218,0.2216,0.2215,0,0,0,0,0,0,0,0.2593,0.2583,0.2496,0.2499,0.2492,0.2462,0.245,0.2418,0.2346,0.2388,0.2383,0.2376,0.2293,0.2266,0.2259,0.221,0.222,0.2217,0.2215,0.2213,0.2294,0.2298,0,0,0,0,0,0,0.2617,0.2588,0.25,0.2493,0.2542,0.2461,0.2447,0.2428,0.2346,0.2334,0.2377,0.2373,0.2272,0.2264,0.2255,0.234,0.2216,0.2213,0.2211,0.229,0.2295,0.23,0,0,0,0,0,0,0.262,0.261,0.2505,0.2542,0.2527,0.246,0.2439,0.2426,0.2413,0.2338,0.2326,0.2379,0.2271,0.226,0.2264,0.2331,0.2211,0.2208,0.2285,0.2291,0.2297,0.2444,0,0,0,0,0,0,0.2624,0.2611,0.2616,0.2543,0.2526,0.2502,0.244,0.2425,0.2411,0.2405,0.2336,0.2325,0.227,0.227,0.2261,0.2324,0.2205,0.2279,0.2288,0.2295,0.2434,0.2454,0.2472,0,0,0,0,0,0.2628,0.2637,0.2616,0.2606,0.253,0.2504,0.2494,0.2441,0.2412,0.2423,0.2386,0.2327,0.2316,0.227,0.2258,0.2322,0.2275,0.2285,0.2295,0.2425,0.245,0.2472,0,0,0,0,0,0,0.2685,0.2627,0.2603,0.2592,0.2566,0.2492,0.2498,0.2459,0.2434,0.2432,0.2357,0.2345,0.2375,0.234,0.2291,0.2378,0.2297,0.2304,0.24,0.2423,0.2443,0.2465,0.2202,0,0,0,0,0,0.2703,0.2698,0.2641,0.2639,0.2632,0.257,0.2556,0.2521,0.2484,0.2471,0.2424,0.2403,0.2405,0.2406,0.2385,0.2421,0.2432,0.2468,0.2488,0.2504,0.252,0.2627,0.2658,0.2332,0.2331,0.2331,0,0,0.2721,0.2694,0.2688,0.2653,0.2625,0.263,0.256,0.2553,0.2564,0.2467,0.2478,0.2453,0.2428,0.2469,0.2484,0.2449,0.2605,0.2516,0.253,0.2537,0.2641,0.2672,0.27,0.2338,0.2337,0.2336,0,0,0.2766,0.2739,0.2754,0.2744,0.2723,0.269,0.2699,0.2645,0.2634,0.2636,0.2594,0.2629,0.2586,0.2614,0.2617,0.2742,0.2695,0.2732,0.2852,0.2956,0.2984,0.3008,0.3063,0.3091,0.2753,0.2754,0.2754,0,0.2786,0.2791,0.2759,0.2779,0.2777,0.2728,0.2747,0.274,0.2696,0.2703,0.2664,0.2688,0.267,0.2761,0.281,0.2787,0.2811,0.2755,0.2981,0.3005,0.3027,0.3078,0.3107,0.2762,0.2761,0.276,0.2759,0,0.2839,0.2852,0.2868,0.2873,0.2878,0.2887,0.2873,0.2886,0.2861,0.284,0.29,0.2895,0.2913,0.2937,0.2902,0.3064,0.3017,0.2982,0.2916,0.3069,0.3113,0.314,0.2774,0.2771,0.2768,0.2766,0,0,0.2818,0.2888,0.2887,0.2905,0.2922,0.2915,0.2978,0.2995,0.302,0.3029,0.3074,0.314,0.3128,0.3138,0.3133,0.3239,0.3422,0.3185,0.3186,0.3229,0.3624,0.3575,0.3599,0.3419,0.3425,0.343,0.359,0,0.2851,0.2916,0.2943,0.2991,0.301,0.3019,0.3068,0.3091,0.3098,0.3133,0.319,0.322,0.3209,0.3224,0.3343,0.3366,0.3501,0.338,0.3478,0.3481,0.3411,0.3633,0.3479,0.3608,0.3616,0.3621,0.3624,0,0.2856,0.2903,0.2967,0.303,0.3039,0.3067,0.3115,0.3154,0.3224,0.3234,0.3314,0.3319,0.3464,0.3431,0.3634,0.3546,0.3623,0.3666,0.3672,0.3594,0.3486,0.3459,0.3657,0.3541,0.3665,0.3662,0.3659,0,0.2808,0.2895,0.2946,0.2965,0.3045,0.3075,0.3109,0.3173,0.3201,0.3299,0.3321,0.3467,0.3517,0.3663,0.3746,0.37,0.3951,0.389,0.3942,0.3935,0.3809,0.3783,0.3898,0.411,0.411,0.411,0.4109,0,0.2794,0.2818,0.2923,0.2941,0.2984,0.3048,0.309,0.3145,0.3226,0.3269,0.3364,0.3433,0.3583,0.3712,0.3805,0.3954,0.4014,0.4019,0.401,0.3855,0.3832,0.3723,0.3643,0.4115,0.4114,0.4113,0.4112,0,0.2708,0.2789,0.2832,0.2933,0.2957,0.2974,0.3052,0.3088,0.3173,0.3241,0.3278,0.3427,0.3588,0.3735,0.3951,0.401,0.4052,0.4211,0.3994,0.3959,0.3863,0.3795,0.3794,0.3693,0.4293,0.4293,0.4294,0,0.2665,0.2688,0.2792,0.2814,0.2852,0.2898,0.2933,0.3037,0.3081,0.3232,0.3266,0.3443,0.3552,0.3833,0.3997,0.419,0.4062,0.4146,0.4066,0.39,0.3819,0.3663,0.3565,0.3952,0.3949,0.3947,0.3945,0,0.2571,0.2613,0.2661,0.2715,0.2754,0.2799,0.2862,0.2891,0.3021,0.3094,0.3212,0.3317,0.3595,0.3725,0.3974,0.4068,0.3915,0.4108,0.4015,0.3657,0.342,0.3299,0.3764,0.3927,0.3929,0.393,0.3931,0.3932,0.2472,0.2483,0.2554,0.2597,0.2643,0.2677,0.2676,0.2766,0.2825,0.2922,0.3099,0.3211,0.3434,0.3761,0.3837,0.3847,0.3845,0.3768,0.3729,0.3611,0.3432,0.3846,0.3944,0.3946,0.3947,0.3949,0.395,0,0.2339,0.2389,0.243,0.2478,0.2487,0.2555,0.2608,0.2596,0.2629,0.2789,0.2895,0.3073,0.3218,0.3383,0.3541,0.3488,0.3354,0.3389,0.3131,0.3079,0.3533,0.3434,0.3328,0.3328,0.3328,0.3329,0.3329,0.3329,0.2264,0.2279,0.2328,0.2313,0.2343,0.2309,0.2316,0.2325,0.2401,0.2482,0.258,0.2736,0.2976,0.3164,0.3166,0.311,0.2887,0.279,0.2794,0.3092,0.3123,0.3152,0.3044,0.2858,0.2858,0.2217,0.2212,0.2208]},{"header":{"parameterUnit":"m.s-1","parameterCategory":2,"la1":30.2991,"la2":30.254,"lo1":-89.0895,"lo2":-89.0444,"dy":0.0017,"dx":0.0017,"nx":28,"ny":28,"refTime":"2024-06-11T21:00:00:Z","depth":"0","parameterNumber":3,"parameterNumberName":"V-component_of_CURRENTS"},"data":[0,0,0,0,0,0,0,0,0,0,0,0,0,0,0,0,0,0,0,0,0,0,0,0,0,0,0,0,0,0,0,0,0,0,0,0,0,0,0,0,0,0,0,0,0,0,0,0,0,0,0,0,0,0,0,0,0,0,-0.0469,-0.047,0,-0.0651,-0.0654,-0.0656,-0.0803,-0.0804,-0.0805,-0.0805,-0.1063,-0.1069,-0.1075,0,0,0,0,0,0,0,0,0,0,0,0,0,-0.0518,-0.0516,-0.0469,-0.047,-0.0472,-0.065,-0.0654,-0.0657,-0.0803,-0.0804,-0.0805,-0.0806,-0.1061,-0.1068,-0.1076,0,0,0,0,0,0,0,0,0,0,0,0,0,-0.0586,-0.0515,-0.0469,-0.0559,-0.0569,-0.065,-0.0654,-0.0658,-0.0803,-0.0804,-0.0805,-0.0806,-0.1058,-0.1067,-0.1077,-0.1116,0,0,-0.1106,-0.111,0,0,0,0,0,0,0,0,-0.0582,-0.0586,-0.0545,-0.0553,-0.0563,-0.0697,-0.0765,-0.0812,-0.0803,-0.0724,-0.0805,-0.0806,-0.0941,-0.096,-0.1004,-0.1128,-0.1139,-0.1106,-0.1112,-0.1116,-0.1119,0,0,0,0,0,0,0,-0.0577,-0.058,-0.0551,-0.0546,-0.0557,-0.0683,-0.0692,-0.0777,-0.0834,-0.0731,-0.074,-0.0745,-0.0948,-0.0995,-0.1012,-0.1143,-0.1106,-0.1114,-0.112,-0.1124,-0.1248,-0.1246,0,0,0,0,0,0,-0.0519,-0.0573,-0.0545,-0.0555,-0.0565,-0.0679,-0.069,-0.0661,-0.0832,-0.0855,-0.0743,-0.075,-0.0978,-0.1,-0.1021,-0.1032,-0.1116,-0.1125,-0.113,-0.125,-0.1248,-0.1245,0,0,0,0,0,0,-0.0519,-0.0513,-0.0537,-0.0564,-0.0575,-0.0674,-0.0643,-0.0664,-0.0708,-0.0838,-0.0866,-0.0763,-0.098,-0.1008,-0.1086,-0.1044,-0.1129,-0.1138,-0.1253,-0.1249,-0.1246,-0.1082,0,0,0,0,0,0,-0.0519,-0.0512,-0.049,-0.0558,-0.057,-0.0573,-0.0641,-0.0666,-0.0704,-0.0716,-0.0864,-0.0889,-0.0983,-0.1071,-0.1095,-0.1059,-0.1145,-0.1256,-0.1252,-0.1247,-0.109,-0.1073,-0.1059,0,0,0,0,0,-0.052,-0.0489,-0.0486,-0.0484,-0.0528,-0.0572,-0.0591,-0.0675,-0.0703,-0.0719,-0.0812,-0.0884,-0.1059,-0.1078,-0.1106,-0.1072,-0.1258,-0.1253,-0.1248,-0.1097,-0.1076,-0.1059,0,0,0,0,0,0,-0.0509,-0.0502,-0.0501,-0.0469,-0.0504,-0.0593,-0.0616,-0.0658,-0.0745,-0.0754,-0.0881,-0.0913,-0.096,-0.1033,-0.105,-0.1088,-0.116,-0.116,-0.1035,-0.1017,-0.1001,-0.0954,-0.1153,0,0,0,0,0,-0.0483,-0.0456,-0.0473,-0.0453,-0.0455,-0.0526,-0.0558,-0.0599,-0.0673,-0.0713,-0.0806,-0.0892,-0.096,-0.1002,-0.1081,-0.1117,-0.1134,-0.1102,-0.1086,-0.1072,-0.1049,-0.1019,-0.0997,-0.1228,-0.1228,-0.1228,0,0,-0.0477,-0.0467,-0.0455,-0.0449,-0.0483,-0.0483,-0.0551,-0.0575,-0.0581,-0.0726,-0.0773,-0.0851,-0.0957,-0.0995,-0.1019,-0.1053,-0.1015,-0.1065,-0.1053,-0.1037,-0.1011,-0.0988,-0.0968,-0.1224,-0.1225,-0.1225,0,0,-0.0456,-0.0427,-0.0401,-0.0409,-0.0423,-0.0457,-0.0447,-0.0506,-0.0538,-0.0581,-0.0671,-0.0708,-0.0838,-0.0883,-0.0927,-0.0864,-0.0934,-0.0892,-0.0779,-0.0749,-0.073,-0.0713,-0.07,-0.0683,-0.0881,-0.0881,-0.088,0,-0.0445,-0.0398,-0.0409,-0.0385,-0.0382,-0.0427,-0.0404,-0.0439,-0.0519,-0.0524,-0.057,-0.0684,-0.0771,-0.0789,-0.0768,-0.0826,-0.0833,-0.0847,-0.0726,-0.071,-0.0695,-0.0686,-0.067,-0.0872,-0.0873,-0.0874,-0.0875,0,-0.0405,-0.0367,-0.0353,-0.0318,-0.0323,-0.031,-0.0326,-0.0334,-0.0363,-0.0396,-0.0413,-0.0512,-0.0573,-0.0593,-0.0674,-0.0612,-0.0658,-0.071,-0.077,-0.0662,-0.066,-0.0645,-0.086,-0.0863,-0.0865,-0.0868,0,0,-0.0356,-0.0327,-0.0317,-0.0289,-0.0275,-0.0273,-0.025,-0.0242,-0.022,-0.0266,-0.024,-0.0317,-0.0351,-0.0398,-0.0478,-0.0451,-0.0357,-0.0528,-0.053,-0.0506,-0.0297,-0.0337,-0.0327,-0.0392,-0.0388,-0.0386,-0.0335,0,-0.0312,-0.0257,-0.0252,-0.0199,-0.0163,-0.0172,-0.015,-0.0146,-0.0158,-0.0147,-0.0181,-0.0206,-0.0283,-0.0305,-0.0279,-0.0358,-0.0313,-0.0366,-0.0414,-0.0415,-0.0456,-0.0308,-0.0315,-0.027,-0.0322,-0.032,-0.0318,0,-0.0254,-0.0223,-0.0166,-0.0117,-0.01,-0.008,-0.003,-0.0018,-0.0001,-0.0009,-0.0001,-0.0052,-0.0035,-0.0109,-0.0113,-0.0149,-0.019,-0.0232,-0.0232,-0.0314,-0.0427,-0.0389,-0.0244,-0.0428,-0.0297,-0.0299,-0.03,0,-0.0206,-0.015,-0.0104,-0.0086,-0.0048,-0.0018,0.0003,0.0027,0.0053,0.0084,0.0107,0.0107,0.0102,0.0079,-0.0015,-0.0057,-0.0015,-0.0092,-0.0151,-0.0157,-0.0192,-0.0206,-0.022,-0.004,-0.0041,-0.0041,-0.0041,0,-0.0143,-0.0097,-0.0079,-0.0049,0.0012,0.003,0.0093,0.0111,0.0155,0.0207,0.0181,0.0222,0.0153,0.0144,0.0063,0.0009,0.0053,-0.0085,-0.0123,-0.0137,-0.0145,-0.0337,-0.0432,-0.0039,-0.0039,-0.004,-0.004,0,-0.0091,-0.008,-0.0024,0.0018,0.0034,0.0079,0.0137,0.0185,0.0219,0.0293,0.0311,0.0326,0.0325,0.0249,0.0202,0.0104,-0.0036,0.0018,-0.0002,-0.0042,-0.0286,-0.037,-0.0388,-0.046,-0.0022,-0.0023,-0.0023,0,-0.0055,-0.0028,0.0012,0.0041,0.0062,0.0121,0.0164,0.0209,0.0265,0.0357,0.0404,0.0431,0.0472,0.0389,0.0239,0.0135,-0.0023,0.0021,-0.0048,-0.0253,-0.0374,-0.0438,-0.0502,-0.0031,-0.0031,-0.0032,-0.0032,0,0.0006,0.0005,0.0039,0.0087,0.0133,0.0191,0.0261,0.0316,0.0389,0.0472,0.0586,0.0637,0.056,0.0478,0.0305,0.0187,-0.0108,0.001,-0.0178,-0.0337,-0.0426,-0.0531,-0.0138,-0.0034,-0.0034,-0.0034,-0.0034,-0.0034,0.0044,0.0065,0.0091,0.0142,0.0195,0.0273,0.0346,0.0437,0.0556,0.073,0.0739,0.0885,0.0681,0.0463,0.0257,-0.0148,-0.0123,-0.0275,-0.0345,-0.038,-0.0483,-0.01,-0.0066,-0.0066,-0.0066,-0.0066,-0.0066,0,0.0091,0.0105,0.0149,0.0214,0.0287,0.0303,0.0424,0.0528,0.0698,0.0877,0.1011,0.1034,0.0749,0.0419,-0.0096,-0.0423,-0.0562,-0.0622,-0.072,-0.0758,-0.0392,-0.0432,-0.0504,-0.0504,-0.0504,-0.0503,-0.0503,-0.0503,0.0119,0.0157,0.017,0.0286,0.0341,0.0466,0.0548,0.0712,0.0874,0.1147,0.1305,0.1385,0.1124,0.0119,-0.0618,-0.0808,-0.1043,-0.108,-0.1199,-0.0989,-0.0963,-0.0939,-0.1,-0.1189,-0.119,-0.1541,-0.1544,-0.1547]}],[{"header":{"parameterUnit":"m.s-1","parameterCategory":2,"la1":30.2991,"la2":30.254,"lo1":-89.0895,"lo2":-89.0444,"dy":0.0017,"dx":0.0017,"nx":28,"ny":28,"refTime":"2024-06-11T21:00:00:Z","depth":"2","parameterNumber":2,"parameterNumberName":"U-component_of_CURRENTS"},"data":[0,0,0,0,0,0,0,0,0,0,0,0,0,0,0,0,0,0,0,0,0,0,0,0,0,0,0,0,0,0,0,0,0,0,0,0,0,0,0,0,0,0,0,0,0,0,0,0,0,0,0,0,0,0,0,0,0,0,0.2113,0.2114,0,0.225,0.2252,0.2254,0.2338,0.2338,0.2338,0.2338,0.2231,0.2228,0.2225,0,0,0,0,0,0,0,0,0,0,0,0,0,0.2157,0.2154,0.2113,0.2114,0.2115,0.225,0.2252,0.2254,0.2338,0.2338,0.2338,0.2338,0.2232,0.2228,0.2225,0,0,0,0,0,0,0,0,0,0,0,0,0,0.2204,0.2154,0.2113,0.217,0.2176,0.2249,0.2252,0.2255,0.2338,0.2338,0.2338,0.2338,0.2233,0.2229,0.2225,0.2197,0,0,0.2211,0.2209,0,0,0,0,0,0,0,0,0.22,0.2202,0.216,0.2166,0.2173,0.2273,0.2229,0.2222,0.2338,0.2281,0.2338,0.2338,0.2219,0.2216,0.2252,0.2192,0.2187,0.2211,0.2208,0.2207,0.2205,0,0,0,0,0,0,0,0.2197,0.2198,0.2171,0.2162,0.217,0.2269,0.2274,0.223,0.2247,0.2286,0.2291,0.23,0.2222,0.2256,0.2249,0.2186,0.2211,0.2207,0.2205,0.2203,0.2225,0.2228,0,0,0,0,0,0,0.2158,0.2193,0.2167,0.2175,0.2183,0.2267,0.2273,0.2245,0.2253,0.2255,0.23,0.2303,0.2263,0.2254,0.2245,0.2326,0.2207,0.2203,0.22,0.2222,0.2226,0.223,0,0,0,0,0,0,0.2158,0.2153,0.2161,0.2187,0.2195,0.2264,0.2233,0.2247,0.2302,0.2265,0.2264,0.2342,0.2263,0.2251,0.2251,0.2317,0.2201,0.2197,0.2219,0.2223,0.2228,0.2411,0,0,0,0,0,0,0.2158,0.2151,0.2145,0.2182,0.2191,0.2203,0.2233,0.225,0.2304,0.2311,0.2299,0.229,0.2262,0.2258,0.2246,0.2308,0.2193,0.2214,0.2221,0.2226,0.2401,0.2422,0.2439,0,0,0,0,0,0.2159,0.2157,0.2142,0.2141,0.2168,0.2203,0.2218,0.2273,0.2306,0.2325,0.2346,0.2291,0.2288,0.2256,0.2242,0.2305,0.2212,0.2219,0.2226,0.2393,0.2418,0.2439,0,0,0,0,0,0,0.2203,0.2166,0.2151,0.2143,0.2162,0.2215,0.2255,0.2285,0.2326,0.2333,0.2315,0.2306,0.2339,0.229,0.2256,0.2332,0.2247,0.2251,0.2379,0.2401,0.242,0.242,0.219,0,0,0,0,0,0.2193,0.2165,0.2159,0.2158,0.2163,0.221,0.2242,0.2264,0.2295,0.2318,0.2334,0.2342,0.2356,0.2352,0.2344,0.2362,0.2333,0.24,0.2419,0.2435,0.2429,0.2458,0.2479,0.2253,0.2253,0.2253,0,0,0.2216,0.219,0.2181,0.2164,0.219,0.2248,0.2232,0.227,0.2348,0.2288,0.2411,0.2396,0.2376,0.2429,0.2438,0.2395,0.2493,0.2445,0.2459,0.2442,0.2467,0.2489,0.2508,0.2258,0.2257,0.2256,0,0,0.227,0.2214,0.2225,0.225,0.2264,0.2278,0.2289,0.2344,0.2391,0.2464,0.2473,0.2502,0.2522,0.2546,0.2552,0.2659,0.2593,0.2659,0.2752,0.2783,0.2801,0.2816,0.2845,0.2861,0.2669,0.267,0.267,0,0.2308,0.2296,0.2246,0.2299,0.2328,0.2301,0.2359,0.242,0.2487,0.2502,0.2516,0.2595,0.259,0.2655,0.2727,0.2704,0.27,0.267,0.2808,0.2822,0.2835,0.2859,0.2875,0.2679,0.2678,0.2677,0.2676,0,0.2373,0.24,0.242,0.245,0.2483,0.2509,0.2554,0.2595,0.2631,0.2671,0.2734,0.2759,0.2786,0.2824,0.2819,0.2915,0.2879,0.283,0.2749,0.2869,0.2887,0.2901,0.2693,0.269,0.2687,0.2684,0,0,0.2359,0.2437,0.2458,0.2473,0.2544,0.2547,0.267,0.2702,0.2739,0.2827,0.2889,0.2986,0.2961,0.2968,0.2969,0.3024,0.3157,0.2985,0.2982,0.3013,0.323,0.308,0.3079,0.3133,0.3135,0.3137,0.3219,0,0.2416,0.2503,0.2549,0.2644,0.2662,0.2692,0.2792,0.2832,0.2862,0.2921,0.2953,0.3011,0.303,0.3041,0.3111,0.3123,0.3194,0.3139,0.3107,0.3106,0.2958,0.309,0.2861,0.2903,0.3232,0.3234,0.3235,0,0.2445,0.2486,0.2578,0.2643,0.2658,0.2734,0.2761,0.285,0.2925,0.296,0.3018,0.3033,0.3143,0.3134,0.325,0.3212,0.3248,0.3269,0.3271,0.3064,0.2979,0.2828,0.2913,0.3256,0.3254,0.3253,0.3251,0,0.235,0.2486,0.2522,0.2565,0.267,0.2709,0.2758,0.2838,0.2877,0.2976,0.2996,0.3101,0.3137,0.3225,0.3287,0.328,0.3384,0.3361,0.3266,0.3255,0.3015,0.2978,0.3452,0.3452,0.3452,0.3452,0.3451,0,0.233,0.2365,0.2476,0.2502,0.2527,0.2637,0.2672,0.2742,0.2842,0.2869,0.2996,0.302,0.3163,0.3224,0.3301,0.3313,0.3395,0.3301,0.3271,0.3075,0.3044,0.3291,0.3271,0.3455,0.3454,0.3453,0.3453,0,0.2223,0.2309,0.234,0.2453,0.2481,0.2494,0.2613,0.2632,0.2758,0.2805,0.2846,0.2971,0.3052,0.3166,0.3283,0.3285,0.334,0.3322,0.3082,0.3022,0.3199,0.3189,0.3246,0.3241,0.3237,0.3234,0.3232,0,0.2172,0.2178,0.2268,0.2284,0.2341,0.2392,0.2424,0.2565,0.2605,0.2746,0.2753,0.2856,0.2891,0.3005,0.3039,0.3128,0.3239,0.295,0.2894,0.3215,0.3182,0.3177,0.3171,0.2681,0.2674,0.2668,0.2664,0,0.2064,0.2096,0.2125,0.2152,0.2185,0.2223,0.2297,0.2314,0.247,0.2526,0.2591,0.2635,0.2718,0.2672,0.2756,0.278,0.2921,0.2831,0.3242,0.2743,0.2682,0.2648,0.2662,0.2613,0.2618,0.2622,0.2624,0.2626,0.1969,0.1952,0.1988,0.2003,0.2039,0.2059,0.206,0.2134,0.2172,0.2235,0.2339,0.2349,0.2413,0.2396,0.2378,0.2393,0.2589,0.2539,0.2558,0.2582,0.2477,0.2409,0.2271,0.2274,0.2277,0.2279,0.2281,0,0.1831,0.1842,0.1843,0.1858,0.185,0.1933,0.1972,0.1952,0.1949,0.2006,0.204,0.1903,0.1887,0.1993,0.1929,0.1956,0.1962,0.1906,0.1911,0.1962,0.2007,0.1873,0.1507,0.1505,0.1503,0.15,0,0,0.1762,0.1712,0.1713,0.1668,0.1704,0.1694,0.1708,0.1658,0.1682,0.1616,0.1616,0.1732,0.1885,0.1637,0.1638,0.1563,0.1743,0.1506,0.2127,0.2179,0.2221,0.2374,0.2224,0,0,0,0,0]},{"header":{"parameterUnit":"m.s-1","parameterCategory":2,"la1":30.2991,"la2":30.254,"lo1":-89.0895,"lo2":-89.0444,"dy":0.0017,"dx":0.0017,"nx":28,"ny":28,"refTime":"2024-06-11T21:00:00:Z","depth":"2","parameterNumber":3,"parameterNumberName":"V-component_of_CURRENTS"},"data":[0,0,0,0,0,0,0,0,0,0,0,0,0,0,0,0,0,0,0,0,0,0,0,0,0,0,0,0,0,0,0,0,0,0,0,0,0,0,0,0,0,0,0,0,0,0,0,0,0,0,0,0,0,0,0,0,0,0,-0.0083,-0.0084,0,-0.0324,-0.0329,-0.0333,-0.0551,-0.0552,-0.0553,-0.0553,-0.0659,-0.0661,-0.0663,0,0,0,0,0,0,0,0,0,0,0,0,0,-0.0138,-0.0135,-0.0083,-0.0084,-0.0085,-0.0324,-0.0329,-0.0334,-0.0551,-0.0552,-0.0553,-0.0554,-0.0658,-0.066,-0.0663,0,0,0,0,0,0,0,0,0,0,0,0,0,-0.0237,-0.0134,-0.0082,-0.0208,-0.022,-0.0323,-0.0329,-0.0335,-0.0551,-0.0552,-0.0553,-0.0554,-0.0657,-0.066,-0.0663,-0.0658,0,0,-0.0673,-0.0674,0,0,0,0,0,0,0,0,-0.0231,-0.0238,-0.0188,-0.0199,-0.0213,-0.0392,-0.0386,-0.043,-0.055,-0.0446,-0.0553,-0.0555,-0.0543,-0.0556,-0.0628,-0.0663,-0.0667,-0.0673,-0.0675,-0.0676,-0.0677,0,0,0,0,0,0,0,-0.0224,-0.023,-0.0198,-0.0189,-0.0204,-0.0363,-0.0378,-0.0399,-0.0497,-0.0455,-0.0466,-0.0462,-0.0552,-0.0625,-0.0631,-0.0669,-0.0673,-0.0676,-0.0678,-0.0679,-0.0767,-0.0767,0,0,0,0,0,0,-0.0135,-0.0221,-0.019,-0.0203,-0.0203,-0.0358,-0.0376,-0.0349,-0.05,-0.052,-0.046,-0.0471,-0.0619,-0.0628,-0.0635,-0.0659,-0.0676,-0.0679,-0.0681,-0.0767,-0.0767,-0.0768,0,0,0,0,0,0,-0.0135,-0.0129,-0.018,-0.0205,-0.022,-0.0351,-0.0323,-0.0353,-0.0428,-0.0502,-0.0524,-0.0501,-0.0621,-0.0631,-0.0687,-0.0662,-0.068,-0.0683,-0.0766,-0.0767,-0.0767,-0.0689,0,0,0,0,0,0,-0.0135,-0.0127,-0.0115,-0.0197,-0.0214,-0.0223,-0.032,-0.0356,-0.0413,-0.043,-0.0543,-0.0556,-0.0622,-0.0683,-0.069,-0.0667,-0.0686,-0.0765,-0.0766,-0.0767,-0.0691,-0.0687,-0.0683,0,0,0,0,0,-0.0136,-0.0121,-0.0112,-0.011,-0.0179,-0.022,-0.0247,-0.0361,-0.0412,-0.0438,-0.054,-0.0553,-0.0693,-0.0686,-0.0695,-0.0671,-0.0765,-0.0766,-0.0767,-0.0692,-0.0687,-0.0683,0,0,0,0,0,0,-0.0168,-0.0141,-0.0135,-0.0117,-0.0141,-0.0249,-0.0295,-0.0345,-0.0455,-0.0477,-0.0565,-0.0585,-0.0629,-0.0661,-0.065,-0.0704,-0.0726,-0.0729,-0.0667,-0.0662,-0.0659,-0.0612,-0.0688,0,0,0,0,0,-0.0144,-0.0115,-0.0115,-0.0104,-0.0105,-0.019,-0.0231,-0.0282,-0.0365,-0.042,-0.0501,-0.0581,-0.0641,-0.0659,-0.0725,-0.0737,-0.0747,-0.0729,-0.0725,-0.0721,-0.0692,-0.0716,-0.0711,-0.0771,-0.0771,-0.0771,0,0,-0.0154,-0.0133,-0.0122,-0.0106,-0.015,-0.0169,-0.0226,-0.0262,-0.0295,-0.0401,-0.0502,-0.0571,-0.0648,-0.0698,-0.0714,-0.0715,-0.071,-0.0723,-0.0719,-0.0691,-0.0716,-0.071,-0.0705,-0.0772,-0.0772,-0.0772,0,0,-0.0168,-0.013,-0.0115,-0.0121,-0.0127,-0.0163,-0.0151,-0.023,-0.0283,-0.0346,-0.0447,-0.05,-0.0595,-0.0655,-0.069,-0.069,-0.07,-0.0704,-0.0629,-0.0653,-0.0647,-0.0642,-0.0636,-0.0631,-0.0687,-0.0687,-0.0687,0,-0.0182,-0.0144,-0.0128,-0.0124,-0.0125,-0.0144,-0.0144,-0.0198,-0.0296,-0.0312,-0.0359,-0.0512,-0.0573,-0.0618,-0.0636,-0.0675,-0.0684,-0.0637,-0.0644,-0.0639,-0.0635,-0.0631,-0.0627,-0.0684,-0.0684,-0.0684,-0.0685,0,-0.0184,-0.0162,-0.0159,-0.0135,-0.0142,-0.0138,-0.0152,-0.0179,-0.022,-0.0267,-0.0318,-0.0424,-0.0498,-0.0528,-0.0584,-0.0584,-0.0597,-0.0645,-0.0644,-0.0624,-0.0622,-0.0618,-0.0678,-0.068,-0.0681,-0.0682,0,0,-0.0169,-0.0157,-0.0155,-0.0133,-0.0131,-0.0126,-0.0144,-0.0144,-0.0144,-0.0223,-0.0234,-0.0342,-0.0372,-0.0414,-0.0481,-0.0497,-0.0485,-0.0543,-0.0546,-0.0515,-0.051,-0.0515,-0.0512,-0.0534,-0.0533,-0.0533,-0.0515,0,-0.0165,-0.0149,-0.0147,-0.0131,-0.0108,-0.0108,-0.0118,-0.0122,-0.0142,-0.0163,-0.0213,-0.0262,-0.0334,-0.0356,-0.0384,-0.0468,-0.0474,-0.0483,-0.0553,-0.0554,-0.0543,-0.0508,-0.0489,-0.0471,-0.0512,-0.0511,-0.0511,0,-0.0142,-0.0128,-0.0109,-0.0075,-0.0065,-0.0066,-0.0028,-0.0038,-0.0049,-0.0065,-0.0092,-0.0145,-0.0176,-0.0246,-0.0327,-0.033,-0.0398,-0.0459,-0.0461,-0.0483,-0.0552,-0.0504,-0.0464,-0.0506,-0.0506,-0.0507,-0.0507,0,-0.0092,-0.0084,-0.0056,-0.0049,-0.0034,-0.0016,-0.0005,-0.0004,0.0021,0.0012,0.0033,-0.0034,-0.0049,-0.0142,-0.0251,-0.029,-0.033,-0.0411,-0.0472,-0.0473,-0.0476,-0.0479,-0.0453,-0.0453,-0.0453,-0.0453,-0.0453,0,-0.0047,-0.0019,-0.0027,-0.0006,0.0042,0.0039,0.0089,0.0091,0.0114,0.0166,0.0098,0.0133,-0.0023,-0.0068,-0.0191,-0.0293,-0.0282,-0.043,-0.0464,-0.045,-0.045,-0.0505,-0.0511,-0.0453,-0.0453,-0.0453,-0.0453,0,0.0021,0.0009,0.005,0.0061,0.0073,0.0114,0.0162,0.0204,0.0216,0.0287,0.0299,0.0273,0.0216,0.0072,-0.0071,-0.0201,-0.0316,-0.0359,-0.0312,-0.0341,-0.0458,-0.0461,-0.043,-0.043,-0.043,-0.043,-0.0429,0,0.0064,0.0087,0.0105,0.0136,0.0147,0.0196,0.024,0.0258,0.0319,0.0385,0.0446,0.0416,0.0418,0.023,-0.001,-0.0205,-0.0255,-0.0325,-0.0412,-0.0417,-0.0453,-0.0456,-0.0459,-0.0383,-0.0382,-0.0382,-0.0382,0,0.0147,0.0143,0.0166,0.0221,0.0268,0.0329,0.04,0.0469,0.0514,0.0598,0.0715,0.0725,0.0522,0.033,0.0037,-0.0107,-0.0299,-0.0326,-0.0331,-0.0397,-0.0373,-0.0409,-0.0413,-0.0378,-0.0379,-0.0379,-0.0379,-0.0379,0.0208,0.0233,0.0254,0.0314,0.0376,0.048,0.0556,0.0659,0.0796,0.0918,0.0893,0.0895,0.0631,0.026,0.0027,-0.0247,-0.0269,-0.0383,-0.0384,-0.0386,-0.0389,-0.0367,-0.0369,-0.037,-0.037,-0.037,-0.037,0,0.0276,0.0293,0.0352,0.0427,0.0523,0.053,0.0677,0.0783,0.0976,0.1025,0.1094,0.086,0.0624,0.0335,-0.0075,-0.032,-0.0352,-0.0382,-0.0378,-0.038,-0.0382,-0.0385,-0.0365,-0.0365,-0.0366,-0.0366,0,0,0.0308,0.0362,0.0383,0.0544,0.0609,0.0745,0.0837,0.1014,0.1096,0.1188,0.1147,0.1026,0.0681,0.039,0.0071,-0.0146,-0.0206,-0.0185,-0.0168,-0.0127,-0.0126,-0.0363,-0.0368,0,0,0,0,0]}],[{"header":{"parameterUnit":"m.s-1","parameterCategory":2,"la1":30.2991,"la2":30.254,"lo1":-89.0895,"lo2":-89.0444,"dy":0.0017,"dx":0.0017,"nx":28,"ny":28,"refTime":"2024-06-11T21:00:00:Z","depth":"4","parameterNumber":2,"parameterNumberName":"U-component_of_CURRENTS"},"data":[0,0,0,0,0,0,0,0,0,0,0,0,0,0,0,0,0,0,0,0,0,0,0,0,0,0,0,0,0,0,0,0,0,0,0,0,0,0,0,0,0,0,0,0,0,0,0,0,0,0,0,0,0,0,0,0,0,0,0.094,0.094,0,0.086,0.0859,0.0857,0.0788,0.0787,0.0787,0.0787,0.0807,0.0808,0.0808,0,0,0,0,0,0,0,0,0,0,0,0,0,0.0864,0.0867,0.094,0.094,0.0939,0.0861,0.0859,0.0857,0.0788,0.0787,0.0787,0.0787,0.0807,0.0808,0.0808,0,0,0,0,0,0,0,0,0,0,0,0,0,0.0846,0.0867,0.094,0.09,0.0896,0.0861,0.0859,0.0857,0.0788,0.0787,0.0787,0.0787,0.0806,0.0808,0.0809,0.0821,0,0,0.0812,0.0812,0,0,0,0,0,0,0,0,0.0848,0.0849,0.0906,0.0903,0.0898,0.0839,0.084,0.0852,0.0788,0.0822,0.0787,0.0787,0.0832,0.0831,0.0805,0.0822,0.0823,0.0812,0.0813,0.0813,0.0813,0,0,0,0,0,0,0,0.0849,0.0851,0.0902,0.0906,0.0901,0.0829,0.0827,0.084,0.0826,0.0819,0.0815,0.0817,0.0829,0.0804,0.0806,0.0823,0.0812,0.0813,0.0814,0.0814,0.0949,0.0952,0,0,0,0,0,0,0.0882,0.0853,0.0904,0.09,0.0879,0.0832,0.0829,0.0853,0.0824,0.082,0.0817,0.0814,0.0803,0.0805,0.0807,0.0898,0.0813,0.0814,0.0815,0.0946,0.095,0.0953,0,0,0,0,0,0,0.0881,0.0888,0.0908,0.0878,0.0876,0.0835,0.0862,0.0852,0.0849,0.0823,0.0819,0.0828,0.0803,0.0805,0.0811,0.0896,0.0815,0.0816,0.0943,0.0948,0.0952,0.1032,0,0,0,0,0,0,0.088,0.0889,0.0926,0.0882,0.088,0.0898,0.0862,0.0851,0.0853,0.0848,0.0831,0.083,0.0803,0.081,0.0812,0.0896,0.0816,0.0939,0.0945,0.095,0.1026,0.1039,0.105,0,0,0,0,0,0.0877,0.0907,0.0929,0.0935,0.0931,0.0899,0.089,0.0854,0.0854,0.0851,0.0829,0.0832,0.085,0.0811,0.0814,0.09,0.0937,0.0943,0.095,0.102,0.1036,0.105,0,0,0,0,0,0,0.087,0.0903,0.0925,0.0961,0.0948,0.089,0.0887,0.0877,0.0855,0.0865,0.0835,0.0832,0.0867,0.0876,0.0835,0.096,0.091,0.0917,0.0963,0.0978,0.099,0.0993,0.0817,0,0,0,0,0,0.0901,0.0945,0.0945,0.0973,0.0977,0.0948,0.0938,0.0923,0.0895,0.0886,0.0884,0.0895,0.0896,0.0926,0.0917,0.0985,0.0972,0.1056,0.1068,0.1078,0.1086,0.1138,0.1155,0.0975,0.0975,0.0975,0,0,0.0893,0.0929,0.0945,0.0978,0.0965,0.0948,0.0938,0.0936,0.0914,0.0898,0.0893,0.0917,0.0912,0.0959,0.0987,0.0985,0.1118,0.1087,0.1095,0.1097,0.1146,0.1164,0.1179,0.0979,0.0979,0.0978,0,0,0.0871,0.0949,0.096,0.096,0.0977,0.0973,0.0986,0.0973,0.0963,0.0972,0.0955,0.1024,0.1039,0.1058,0.1065,0.1151,0.1151,0.1194,0.1292,0.1343,0.1357,0.137,0.1344,0.1353,0.1236,0.1236,0.1236,0,0.0855,0.0894,0.0949,0.0944,0.0947,0.0989,0.0971,0.096,0.0952,0.101,0.0984,0.107,0.1077,0.1141,0.1183,0.1179,0.1188,0.1229,0.1356,0.1369,0.1381,0.1351,0.1361,0.1241,0.124,0.124,0.1239,0,0.0828,0.0855,0.0857,0.0889,0.09,0.0901,0.0912,0.096,0.1004,0.1052,0.1142,0.1133,0.1226,0.125,0.124,0.1366,0.1333,0.1332,0.1312,0.1403,0.1366,0.1375,0.1248,0.1246,0.1245,0.1243,0,0,0.0758,0.0829,0.0819,0.0844,0.0883,0.089,0.0913,0.0993,0.1058,0.1121,0.1205,0.1263,0.1373,0.1386,0.1408,0.1465,0.155,0.1471,0.1471,0.143,0.1627,0.1497,0.1493,0.1592,0.1595,0.1597,0.1554,0,0.0705,0.0721,0.0761,0.0761,0.0774,0.085,0.0888,0.0989,0.106,0.1168,0.127,0.1341,0.1384,0.1442,0.1527,0.151,0.1584,0.1558,0.1557,0.1555,0.1419,0.1504,0.1607,0.156,0.1562,0.1563,0.1564,0,0.0632,0.0679,0.0674,0.0776,0.0792,0.0813,0.0952,0.0974,0.116,0.1246,0.14,0.1459,0.1571,0.1567,0.1648,0.164,0.1681,0.166,0.1658,0.1518,0.1445,0.1461,0.1579,0.1578,0.1577,0.1576,0.1575,0,0.0568,0.0604,0.0627,0.0638,0.0753,0.0807,0.0894,0.1054,0.112,0.1288,0.1383,0.1529,0.158,0.1646,0.1682,0.1682,0.1724,0.1705,0.1618,0.1605,0.1693,0.168,0.1807,0.1807,0.1807,0.1807,0.1808,0,0.0486,0.0505,0.0615,0.0623,0.0737,0.08,0.0908,0.104,0.1182,0.1301,0.1437,0.1494,0.1619,0.1668,0.1695,0.1671,0.1758,0.1636,0.1607,0.1723,0.1714,0.1696,0.1684,0.1806,0.1806,0.1806,0.1807,0,0.0386,0.0443,0.0487,0.0624,0.07,0.0769,0.0944,0.0999,0.1156,0.1269,0.133,0.1502,0.1544,0.1613,0.1672,0.1657,0.1637,0.1635,0.1715,0.1688,0.1468,0.1461,0.148,0.1475,0.1471,0.1468,0.1466,0,0.0353,0.0348,0.0492,0.0537,0.0601,0.0723,0.0817,0.1005,0.1045,0.1243,0.1285,0.1398,0.1498,0.1461,0.1543,0.1546,0.1572,0.1537,0.155,0.1476,0.1446,0.1444,0.1442,0.146,0.1459,0.1458,0.1457,0,0.028,0.0307,0.035,0.0471,0.0554,0.0668,0.0803,0.0837,0.1008,0.1139,0.1237,0.1292,0.1347,0.1386,0.1427,0.1436,0.1519,0.1498,0.1506,0.1517,0.1451,0.1425,0.1428,0.1444,0.1445,0.1447,0.1447,0,0.0229,0.0243,0.0295,0.0389,0.0486,0.0584,0.0679,0.0759,0.0869,0.1071,0.1085,0.1215,0.1333,0.1329,0.1346,0.1351,0.1332,0.1292,0.131,0.1325,0.1299,0.1194,0.1093,0,0,0,0,0,0.0194,0.0191,0.0234,0.0327,0.0392,0.051,0.065,0.0715,0.0856,0.0897,0.101,0.1065,0.1128,0.118,0.1154,0.1238,0.131,0.1197,0.1266,0.1371,0.1386,0.1373,0,0,0,0,0,0,0.0162,0.0189,0.0201,0.0241,0.0289,0.0418,0.0517,0.0631,0.0671,0.0807,0.0848,0.0973,0.1041,0.1132,0.1124,0.1138,0.1152,0.1276,0.1272,0.1363,0.1376,0.1388,0.138,0,0,0,0,0]},{"header":{"parameterUnit":"m.s-1","parameterCategory":2,"la1":30.2991,"la2":30.254,"lo1":-89.0895,"lo2":-89.0444,"dy":0.0017,"dx":0.0017,"nx":28,"ny":28,"refTime":"2024-06-11T21:00:00:Z","depth":"4","parameterNumber":3,"parameterNumberName":"V-component_of_CURRENTS"},"data":[0,0,0,0,0,0,0,0,0,0,0,0,0,0,0,0,0,0,0,0,0,0,0,0,0,0,0,0,0,0,0,0,0,0,0,0,0,0,0,0,0,0,0,0,0,0,0,0,0,0,0,0,0,0,0,0,0,0,0.0162,0.0163,0,0.0236,0.0236,0.0237,0.0332,0.0334,0.0335,0.0337,0.0354,0.0353,0.0352,0,0,0,0,0,0,0,0,0,0,0,0,0,0.0145,0.0145,0.0162,0.0163,0.0164,0.0235,0.0236,0.0237,0.0332,0.0334,0.0336,0.0337,0.0355,0.0354,0.0352,0,0,0,0,0,0,0,0,0,0,0,0,0,0.0178,0.0145,0.0162,0.022,0.0226,0.0235,0.0236,0.0238,0.0331,0.0334,0.0336,0.0338,0.0355,0.0354,0.0352,0.0295,0,0,0.0348,0.0347,0,0,0,0,0,0,0,0,0.0176,0.0179,0.0211,0.0216,0.0223,0.0278,0.0237,0.0254,0.0331,0.0291,0.0337,0.0339,0.0322,0.0323,0.0332,0.0296,0.0297,0.0347,0.0346,0.0346,0.0345,0,0,0,0,0,0,0,0.0174,0.0176,0.0191,0.0212,0.0219,0.0257,0.0264,0.0241,0.0291,0.0294,0.0302,0.031,0.0325,0.0333,0.0333,0.0297,0.0347,0.0346,0.0345,0.0345,0.0251,0.0249,0,0,0,0,0,0,0.0161,0.0173,0.0189,0.0193,0.0206,0.0255,0.0263,0.0257,0.0292,0.0301,0.0308,0.0314,0.0335,0.0335,0.0334,0.0317,0.0346,0.0344,0.0344,0.0252,0.025,0.0249,0,0,0,0,0,0,0.016,0.0161,0.0186,0.0187,0.0193,0.0253,0.0246,0.0257,0.0282,0.0303,0.0311,0.0323,0.0337,0.0336,0.0335,0.0316,0.0344,0.0342,0.0254,0.0252,0.0249,0.025,0,0,0,0,0,0,0.0159,0.0159,0.015,0.0185,0.0192,0.0201,0.0244,0.0257,0.0283,0.0292,0.0317,0.0321,0.0338,0.0337,0.0333,0.0315,0.0341,0.0256,0.0253,0.025,0.0252,0.0248,0.0245,0,0,0,0,0,0.0157,0.0151,0.0148,0.0151,0.0177,0.0201,0.0208,0.0259,0.0281,0.029,0.0311,0.0321,0.0315,0.0335,0.0331,0.0311,0.0258,0.0254,0.025,0.0254,0.0249,0.0245,0,0,0,0,0,0,0.0159,0.0161,0.0159,0.0158,0.0175,0.0218,0.0234,0.0253,0.0276,0.0284,0.0308,0.0312,0.0306,0.0295,0.0317,0.0271,0.0283,0.0278,0.0287,0.0282,0.0278,0.0303,0.034,0,0,0,0,0,0.0143,0.0128,0.0145,0.0143,0.0151,0.0183,0.0199,0.0224,0.0249,0.0264,0.0279,0.0282,0.028,0.0276,0.0273,0.0241,0.0217,0.022,0.0216,0.0214,0.0227,0.0153,0.0144,0.0237,0.0237,0.0237,0,0,0.0144,0.0142,0.0136,0.0139,0.0159,0.0182,0.02,0.0221,0.0246,0.0255,0.0286,0.0274,0.027,0.0257,0.0248,0.025,0.0173,0.0209,0.0207,0.0223,0.0148,0.0139,0.0131,0.0234,0.0235,0.0235,0,0,0.0157,0.0134,0.0136,0.0146,0.0162,0.0176,0.018,0.0208,0.0231,0.0236,0.0254,0.0235,0.0227,0.0228,0.0225,0.0187,0.0162,0.0168,0.0164,0.009,0.0083,0.0076,0.0034,0.0023,0.0158,0.0158,0.0158,0,0.0166,0.0166,0.0145,0.0161,0.0183,0.0176,0.0207,0.0215,0.024,0.0249,0.0248,0.0227,0.0219,0.0208,0.0199,0.0182,0.0141,0.0188,0.0087,0.008,0.0072,0.0031,0.002,0.0157,0.0157,0.0157,0.0157,0,0.0189,0.0194,0.0202,0.021,0.0222,0.0243,0.0251,0.025,0.0254,0.0263,0.0248,0.0222,0.0212,0.0186,0.0187,0.0128,0.0117,0.0099,0.0106,0.0064,0.0022,0.001,0.0157,0.0157,0.0157,0.0157,0,0,0.0216,0.0218,0.0227,0.0244,0.0253,0.0271,0.0283,0.0301,0.0309,0.0287,0.0291,0.0259,0.0226,0.0218,0.0187,0.0116,0.0027,0.0082,0.0078,0.0055,-0.0126,-0.0097,-0.0108,-0.0022,-0.0024,-0.0026,-0.0133,0,0.0256,0.0294,0.0286,0.0332,0.0355,0.0344,0.0366,0.0367,0.0347,0.0335,0.0284,0.0272,0.0243,0.0218,0.0144,0.0062,-0.0007,0.0059,-0.0093,-0.0096,-0.0055,-0.0121,-0.0033,-0.0142,-0.0145,-0.0147,-0.0149,0,0.0291,0.0314,0.0364,0.0394,0.0407,0.0431,0.0443,0.0457,0.0422,0.0403,0.0353,0.031,0.0232,0.0192,0.0033,0.007,-0.0023,-0.0097,-0.0104,-0.008,-0.009,-0.0095,-0.0171,-0.0169,-0.0168,-0.0166,-0.0165,0,0.0323,0.0369,0.041,0.0424,0.0453,0.0477,0.0497,0.0483,0.0493,0.0437,0.0409,0.0319,0.0261,0.0129,-0.0012,-0.0006,-0.0204,-0.0213,-0.0269,-0.0267,-0.0256,-0.0248,-0.0339,-0.0339,-0.0339,-0.0338,-0.0338,0,0.0357,0.0396,0.0431,0.0457,0.053,0.0522,0.0563,0.0568,0.0536,0.053,0.0448,0.0395,0.0232,0.0105,-0.002,-0.0176,-0.0211,-0.0272,-0.0302,-0.0254,-0.0244,-0.0265,-0.0255,-0.0342,-0.0341,-0.0341,-0.034,0,0.037,0.0394,0.0447,0.0502,0.0545,0.0586,0.0641,0.0633,0.061,0.0582,0.0564,0.0438,0.0278,0.0122,-0.0098,-0.0177,-0.0332,-0.038,-0.0301,-0.0323,-0.0341,-0.033,-0.0448,-0.0448,-0.0448,-0.0449,-0.0449,0,0.0369,0.0395,0.0497,0.0535,0.0568,0.0632,0.067,0.0688,0.0663,0.0601,0.0572,0.0433,0.0333,0.0057,-0.0107,-0.0327,-0.0355,-0.0423,-0.0394,-0.034,-0.0357,-0.0346,-0.0335,-0.0449,-0.0449,-0.0449,-0.0449,0,0.0369,0.0406,0.0448,0.0549,0.0608,0.0688,0.0733,0.0717,0.0693,0.0678,0.0569,0.0436,0.026,0.006,-0.0107,-0.0268,-0.0373,-0.0425,-0.0425,-0.0398,-0.0342,-0.0356,-0.0345,-0.0449,-0.0449,-0.0449,-0.0449,0,0.0359,0.0398,0.0461,0.0531,0.0616,0.0689,0.0731,0.07,0.0707,0.062,0.0582,0.0408,0.0309,0.0088,-0.0075,-0.0217,-0.0247,-0.0285,-0.0293,-0.0295,-0.0211,-0.0115,-0.0185,0,0,0,0,0,0.0343,0.038,0.044,0.0522,0.0587,0.0681,0.0733,0.0737,0.0706,0.0639,0.0616,0.0458,0.023,0.0118,-0.002,-0.0079,-0.0276,-0.0244,-0.0325,-0.045,-0.045,-0.0375,0,0,0,0,0,0,0.0339,0.0397,0.0428,0.048,0.0533,0.0652,0.0701,0.0705,0.0658,0.0605,0.0479,0.0436,0.0204,0.0309,-0.002,-0.0064,-0.013,-0.0348,-0.0351,-0.045,-0.045,-0.045,-0.0372,0,0,0,0,0]}]]